Chamblee, GA

9:40 PM EDT on September 25, 2016 (GMT -0400)
Dekalb-Peachtree

Weather History for KPDK - May, 2012

Change the Weather History Date:

Thursday, May 31, 2012

  Actual Average Record
Temperature  
Mean Temperature 77 °F 73 °F  
Max Temperature 91 °F 84 °F 94 °F (2016)
Min Temperature 63 °F 63 °F 60 °F (2000)
Cooling Degree Days 12 8  
Month to date cooling degree days 162  
Year to date cooling degree days 211  
Growing Degree Days 27 (Base 50)    
Moisture  
Dew Point 58 °F    
Average Humidity 56    
Maximum Humidity 87    
Minimum Humidity 24    
Precipitation  
Precipitation 0.00 in 0.14 in 0.70 in (2004)
Month to date precipitation 4.05  
Year to date precipitation 22.49  
Sea Level Pressure  
Sea Level Pressure 29.81 in    
Wind  
Wind Speed 3 mph (SSW)    
Max Wind Speed 14 mph    
Max Gust Speed 21 mph    
Visibility 10 miles    
Events      
T = Trace of Precipitation, MM = Missing Value Source: NWS Daily Summary

Daily Weather History Graph

Daily Weather History Graph

Search for Another Location

Airport or City:

Trip Planner

Search our weather history database for the weather conditions in past years. The results will help you decide how hot, cold, wet, or windy it might be!

Date:

Astronomy

May. 31, 2012 Rise Set
Actual Time 6:27 AM EDT 8:42 PM EDT
Civil Twilight 5:58 AM EDT 9:11 PM EDT
Nautical Twilight 5:23 AM EDT 9:46 PM EDT
Astronomical Twilight 4:45 AM EDT 10:24 PM EDT
Moon 4:39 PM EDT (5/31) 3:14 AM EDT (5/31)
Length of Visible Light 15h 12m
Length of Day
14h 15m
Waxing Gibbous, 80% of the Moon is Illuminated
May 31
Waxing Gibbous
Jun 4
Full
Jun 11
Last Quarter
Jun 19
New
Jun 26
First Quarter

Hourly Weather History & Observations

Time (EDT) Temp. Heat Index Dew Point Humidity Pressure Visibility Wind Dir Wind Speed Gust Speed Precip Events Conditions
12:53 AM 70.0 °F - 57.9 °F 65% 29.83 in 10.0 mi Calm Calm - N/A   Clear
1:53 AM 68.0 °F - 59.0 °F 73% 29.82 in 10.0 mi Calm Calm - N/A   Clear
2:53 AM 64.9 °F - 59.0 °F 81% 29.82 in 10.0 mi Calm Calm - N/A   Clear
3:53 AM 64.9 °F - 59.0 °F 81% 29.82 in 10.0 mi Calm Calm - N/A   Clear
4:53 AM 63.0 °F - 59.0 °F 87% 29.82 in 10.0 mi Calm Calm - N/A   Clear
5:53 AM 63.0 °F - 59.0 °F 87% 29.82 in 10.0 mi Calm Calm - N/A   Clear
6:53 AM 66.0 °F - 60.1 °F 81% 29.83 in 10.0 mi Calm Calm - N/A   Clear
7:53 AM 69.1 °F - 60.1 °F 73% 29.84 in 10.0 mi North 3.5 mph - N/A   Clear
8:53 AM 71.1 °F - 61.0 °F 70% 29.85 in 10.0 mi NNE 3.5 mph - N/A   Clear
9:53 AM 75.9 °F - 61.0 °F 60% 29.86 in 10.0 mi Calm Calm - N/A   Clear
10:53 AM 82.0 °F 83.0 °F 62.1 °F 51% 29.85 in 10.0 mi SSE 5.8 mph - N/A   Clear
11:53 AM 87.1 °F 86.5 °F 59.0 °F 39% 29.84 in 10.0 mi South 11.5 mph - N/A   Clear
12:53 PM 89.1 °F 87.3 °F 55.9 °F 32% 29.83 in 9.0 mi South 9.2 mph - N/A   Clear
1:53 PM 91.0 °F - 50.0 °F 24% 29.81 in 10.0 mi SE 9.2 mph 16.1 mph N/A   Clear
2:53 PM 89.1 °F - 48.0 °F 24% 29.80 in 10.0 mi SSW 8.1 mph 17.3 mph N/A   Partly Cloudy
3:53 PM 89.1 °F - 48.0 °F 24% 29.78 in 10.0 mi South 8.1 mph - N/A   Clear
4:53 PM 88.0 °F 85.7 °F 53.1 °F 30% 29.76 in 10.0 mi SSW 9.2 mph - N/A   Partly Cloudy
5:53 PM 86.0 °F 85.4 °F 59.0 °F 40% 29.74 in 10.0 mi West 6.9 mph - N/A   Partly Cloudy
6:53 PM 82.9 °F 83.2 °F 60.1 °F 46% 29.74 in 10.0 mi WNW 3.5 mph - N/A   Clear
7:53 PM 80.6 °F 81.5 °F 60.8 °F 51% 29.79 in 10.0 mi WNW 3.5 mph - N/A   Clear
8:53 PM 80.1 °F 81.1 °F 61.0 °F 52% 29.76 in 10.0 mi WSW 4.6 mph - N/A   Clear
9:53 PM 79.0 °F - 60.1 °F 52% 29.77 in 10.0 mi SW 13.8 mph 20.7 mph N/A   Scattered Clouds
10:53 PM 75.0 °F - 57.0 °F 53% 29.78 in 10.0 mi South 5.8 mph - N/A   Partly Cloudy
11:53 PM 73.4 °F - 57.2 °F 57% 29.85 in 10.0 mi South 6.9 mph - N/A   Scattered Clouds